EKRAN 2 DEB, 59987

Orbit data source: Space-Track

EKRAN 2 DEB, 59987 is space debris in GEO originally from a launch on Tue, 20 Sep 1977 UTC launched from the Tyuratam Missile And Space Complex (TTMTR). Debris objects in space refer to the collection of defunct objects orbiting the Earth. Examples of debris include non-operational satellites, rocket bodies, and fragments generated from explosions, collisions, or faulty payload assembly.

Not visible in the next 10 days
Identifier
59987, 1977-092N
Orbit
GEO
Last TLE update
4 days ago
Origin
Manufacturer
Unknown
Mission
Spacecraft
Bus & Motor
Unknown
Mass
Unknown
Launch date (UTC)
1977-09-20 (48 years ago)
Launch vehicle
Unknown
Launch site
Tyuratam Missile And Space Complex (TTMTR)
Object type
Payload
Rocket body
Debris
Shape & HBR
Unknown
Radar Cross Section
RCS unknown

Expand to show TLE details & history

TLE from 4 days ago
0 EKRAN 2 DEB
1 59987U 77092N   25125.94905903 -.00000376  00000-0  00000-0 0  9994
2 59987   5.1731 279.4833 0014067 208.9995 195.0867  1.00341666 59033
Epoch: 2025-05-05T22:46Z
Definitive object data (Epoch: 2025-05-05T22:46:38.7Z)
Latitude
3.61604°
Longitude
117.69408°
Altitude
35,823.13 km
Speed
3.071 km/s
True Right ascension
21h 33m 38s
True Declination
3° 36' 45"
Sunlit
Object was in daylight at TLE epoch
Visualization TLE readout
Latitude
5.17626°
Longitude
167.66372°
Altitude
35,791.613 km
Speed
3.074 km/s
Apparent Right ascension
00h 36m 28s
Apparent Declination
0° 20' 20"
Sunlit
Object is in daylight
Visualization observer readout
Local Sidereal Time
09:58:07
Azimuth
307.555° NW
Elevation
-36.503°
Doppler factor
1
Orbital elements
Apogee altitude
35,827.361 km
Perigee altitude
35,708.787 km
Semi-major axis
42,146.211 km
Eccentricity
0.0014067
Inclination
5.1731°
RAAN
279.4833°
Arg. of periapsis
208.9995°
True anomaly
195.04481°
Mean anomaly
195.0867°
Eccentric anomaly
195.06575°
Mean motion
0.25084 °/min
BSTAR
Unknown
Orbital period
1435.15 mins
Loading historical data...
59987 neighbors
Loading maneuver chart data...
Loading SW <> Apogee altitude chart data...
Loading historical data...
Loading historical data...
Loading historical data...
Loading historical data...
Loading historical data...
Loading historical data...
Loading historical data...

EKRAN 2 DEB Visibility forecast

Observer location: undefined°, undefined°

EKRAN 2 DEB is not visible in the next 10 days
Span
Click to sort rows by Start time (UTC) header in descending order
Start Az.
Max El. time (UTC)
Max El. Az.
Max El.
End time (UTC)
End Az.
|